FW0639 Weather Reports


time (UTC)temp
F
wind
direction
speed
knots
gust
knots
rain 1hr
in
rain 24hr
in
rain mn
in
humidity
%
barometer
mb
20260901104205 51 193 0.0 0.0 0.00 0.00 0.00 71 1010.9
20260901103137 51 193 0.0 0.0 0.00 0.00 0.00 72 1011.1
20260901102135 51 193 0.0 0.0 0.00 0.00 0.00 70 1011.2
20260901101137 51 193 0.0 0.0 0.00 0.00 0.00 69 1011.2
20260901100154 52 193 0.0 1.7 0.00 0.00 0.00 69 1011.2
20260901095141 52 193 0.0 0.0 0.00 0.00 0.00 69 1011.3
20260901094132 52 193 0.0 0.0 0.00 0.00 0.00 69 1011.0
20260901092016 51 193 0.0 0.0 0.00 0.00 0.00 70 1011.2
20260901091012 51 193 0.0 0.0 0.00 0.00 0.00 72 1011.2
20260901085958 51 193 0.0 0.0 0.00 0.00 0.00 73 1011.3
20260901084948 51 193 0.0 0.0 0.00 0.00 0.00 73 1011.4
20260901082803 52 193 0.0 0.0 0.00 0.00 0.00 71 1011.5
20260901080616 53 193 0.0 0.0 0.00 0.00 0.00 68 1011.7
20260901072251 55 193 0.0 0.0 0.00 0.00 0.00 63 1012.3
20260901071259 56 193 0.0 0.0 0.00 0.00 0.00 62 1012.2
20260901070254 56 193 0.0 0.9 0.00 0.00 0.00 60 1012.3
20260901065239 57 193 0.0 0.0 0.00 0.00 0.00 59 1012.2
20260901063144 57 193 0.0 1.7 0.00 0.00 0.00 57 1012.3
20260901062133 57 193 0.0 1.7 0.00 0.00 0.00 57 1012.4
20260901061106 58 193 0.0 0.0 0.00 0.00 0.00 57 1012.5
20260901060121 58 193 0.0 0.0 0.00 0.00 0.00 58 1012.5
20260901055117 58 193 0.0 5.2 0.00 0.00 0.00 57 1012.6
20260901052914 57 193 0.0 3.5 0.00 0.00 0.00 58 1012.7
20260901051915 56 193 0.0 2.6 0.00 0.00 0.00 59 1012.6
20260901050857 56 193 0.0 0.0 0.00 0.00 0.00 59 1012.6
20260901045843 56 193 0.0 3.5 0.00 0.00 0.00 59 1012.7
20260901044816 56 193 0.0 0.0 0.00 0.00 0.00 60 1012.7
20260901043839 56 193 0.0 0.0 0.00 0.00 0.00 59 1012.7
20260901042901 56 193 0.0 0.0 0.00 0.00 0.00 61 1012.7
20260901040726 55 193 0.0 0.9 0.00 0.00 0.00 68 1012.7
20260901035739 56 193 0.0 0.0 0.00 0.00 0.00 66 1012.8
20260901034801 56 193 0.0 0.0 0.00 0.00 0.00 66 1012.7
20260901033808 57 355 0.0 0.0 0.00 0.00 0.00 65 1012.7
20260901032755 58 349 0.0 0.0 0.00 0.00 0.00 63 1012.6
20260901031819 59 348 0.0 0.0 0.00 0.00 0.00 61 1012.6
20260901030823 60 343 0.0 0.0 0.00 0.00 0.00 59 1012.5
20260901025832 61 343 0.0 0.0 0.00 0.00 0.00 57 1012.4
20260901024823 63 341 0.0 0.0 0.00 0.00 0.00 53 1012.2
20260901023811 64 340 0.0 0.0 0.00 0.00 0.00 48 1011.9
20260901022754 66 338 0.0 0.0 0.00 0.00 0.00 45 1011.7
20260901021737 66 338 0.0 0.0 0.00 0.00 0.00 42 1011.5
20260901020719 67 338 0.0 0.0 0.00 0.00 0.00 45 1011.5
20260901015652 68 337 0.0 0.0 0.00 0.00 0.00 44 1011.5
20260901014640 68 337 0.0 0.0 0.00 0.00 0.00 41 1011.4
20260901013639 69 336 0.0 0.0 0.00 0.00 0.00 40 1011.2
20260901011504 71 336 0.0 0.0 0.00 0.00 0.00 36 1011.2
20260901010437 72 337 0.0 0.0 0.00 0.00 0.00 37 1011.2
20260901005428 73 337 0.0 0.0 0.00 0.00 0.00 36 1011.3
20260901004418 73 337 0.0 0.0 0.00 0.00 0.00 37 1011.3
20260901003427 73 337 0.0 0.9 0.00 0.00 0.00 36 1011.3
20260901001248 72 337 0.0 0.0 0.00 0.00 0.00 40 1011.4
20260901000251 72 337 0.0 0.0 0.00 0.00 0.00 38 1011.5
20260831235225 72 338 0.0 2.6 0.00 0.00 0.00 34 1011.6
20260831234241 73 344 0.0 1.7 0.00 0.00 0.00 38 1011.5
20260831233242 73 192 0.0 3.5 0.00 0.00 0.00 35 1011.7
20260831232225 74 193 0.0 3.5 0.00 0.00 0.00 35 1011.8
20260831231237 74 193 0.0 3.5 0.00 0.00 0.00 35 1011.8
20260831230247 74 193 0.0 3.5 0.00 0.00 0.00 35 1011.9
20260831222942 74 193 0.0 1.7 0.00 0.00 0.00 37 1012.1
20260831220742 74 193 0.0 2.6 0.00 0.00 0.00 36 1012.1
20260831215715 74 192 0.9 6.1 0.00 0.00 0.00 36 1012.2
20260831214732 74 192 0.9 6.1 0.00 0.00 0.00 35 1012.3
20260831213713 74 193 0.0 2.6 0.00 0.00 0.00 36 1012.4
20260831212735 74 193 0.0 3.5 0.00 0.00 0.00 33 1012.3
20260831211703 74 193 0.9 3.5 0.00 0.00 0.00 38 1012.6
20260831205605 73 352 0.0 4.3 0.00 0.00 0.00 34 1012.8
20260831204542 73 340 0.9 4.3 0.00 0.00 0.00 35 1012.9
20260831203545 73 323 0.0 4.3 0.00 0.00 0.00 35 1013.0
20260831202528 72 337 0.9 0.0 0.00 0.00 0.00 36 1013.2
20260831201533 72 338 0.0 2.6 0.00 0.00 0.00 40 1013.3
20260831200519 72 338 0.9 5.2 0.00 0.00 0.00 38 1013.4
20260831195516 72 337 0.9 5.2 0.00 0.00 0.00 39 1013.5
20260831194514 72 337 0.9 3.5 0.00 0.00 0.00 35 1013.6
20260831193458 71 343 0.9 3.5 0.00 0.00 0.00 38 1013.9
20260831192446 70 337 0.9 6.1 0.00 0.00 0.00 37 1014.1
20260831191435 69 338 0.9 6.1 0.00 0.00 0.00 38 1014.3
20260831185359 70 337 0.9 6.1 0.00 0.00 0.00 38 1014.5
20260831184411 70 337 0.9 6.1 0.00 0.00 0.00 40 1014.5
20260831183425 69 193 0.9 5.2 0.00 0.00 0.00 39 1014.6
20260831182429 69 193 0.9 5.2 0.00 0.00 0.00 38 1014.6
20260831181444 69 193 0.9 4.3 0.00 0.00 0.00 40 1014.7
20260831180420 68 193 0.9 6.1 0.00 0.00 0.00 40 1014.8
20260831175420 67 194 0.9 6.1 0.00 0.00 0.00 41 1014.8
20260831174409 67 347 0.9 5.2 0.00 0.00 0.00 41 1014.9
20260831173356 67 338 0.9 7.0 0.00 0.00 0.00 41 1015.0
20260831171225 65 339 0.9 7.8 0.00 0.00 0.00 43 1015.2
20260831165039 63 337 0.9 7.8 0.00 0.00 0.00 46 1015.3
20260831164021 63 341 1.7 7.8 0.00 0.00 0.00 43 1015.3
20260831163025 63 338 0.9 8.7 0.00 0.00 0.00 45 1015.2
20260831160906 61 181 0.9 5.2 0.00 0.00 0.00 49 1015.3
20260831153636 58 188 0.0 3.5 0.00 0.00 0.00 51 1015.2
20260831152620 58 188 0.0 2.6 0.00 0.00 0.00 55 1015.4
20260831151554 57 188 0.9 3.5 0.00 0.00 0.00 53 1015.4
20260831150530 55 188 0.9 4.3 0.00 0.00 0.00 55 1015.2
20260831145539 53 188 0.0 4.3 0.00 0.00 0.00 62 1015.2
20260831143423 50 187 0.0 0.0 0.00 0.00 0.00 73 1015.2
20260831142413 49 4 0.0 0.0 0.00 0.00 0.00 73 1015.0
20260831141434 48 7 0.0 0.0 0.00 0.00 0.00 74 1015.0
20260831140452 47 24 0.0 0.0 0.00 0.00 0.00 75 1014.9
20260831135453 46 31 0.0 0.0 0.00 0.00 0.00 73 1014.8
20260831134445 46 190 0.0 0.0 0.00 0.00 0.00 75 1014.8
20260831132312 46 191 0.0 0.0 0.00 0.00 0.00 72 1014.4
20260831130132 46 191 0.0 0.0 0.00 0.00 0.00 69 1014.2
20260831123926 47 191 0.0 0.0 0.00 0.00 0.00 66 1013.6
20260831122935 48 191 0.0 0.0 0.00 0.00 0.00 66 1013.6
20260831121954 47 191 0.9 3.5 0.00 0.00 0.00 64 1013.4
20260831121014 47 191 0.0 3.5 0.00 0.00 0.00 66 1013.5
20260831120004 47 191 0.0 0.0 0.00 0.00 0.00 67 1013.4
20260831115002 47 191 0.0 0.0 0.00 0.00 0.00 66 1013.3
20260831113934 47 191 0.0 1.7 0.00 0.00 0.00 67 1013.2
20260831112937 47 191 0.0 0.9 0.00 0.00 0.00 68 1013.0
20260831110814 46 191 0.0 0.0 0.00 0.00 0.00 71 1012.8
20260831105819 46 191 0.0 0.0 0.00 0.00 0.00 70 1012.6